Вернуться в каталог

COSMOS 2251 DEB

АктивенLEO
NORAD 34343·DEBRIS·🇷🇺 Russia

Запущен Jun 16, 1993 с Plesetsk Cosmodrome

Loading…

Ближайшие Пролёты (ближайшие 24 часа)

TLE

СвежийSource: Space-Track

Эпоха: Sep 14, 2026, 01:56 UTC

1 34343U 93036PR  26257.08087696  .00004300  00000-0  66522-3 0  9995
2 34343  74.0159 273.6256 0016492 123.5147 300.1069 14.73481234927814

Отслеживайте COSMOS 2251 DEB в реальном времени с AllMySat

Download on the App Store